Kerrville, TX

8:20 AM CST on December 12, 2017 (GMT -0600)
Kerrville Municipal-Schreiner

Weather History for KERV - October, 2011

Change the Weather History Date:

Friday, October 21, 2011

  Actual Average (KHDO) Record (KHDO)
Temperature  
Mean Temperature 66 °F -  
Max Temperature 80 °F 79 °F 91 °F (2012)
Min Temperature 53 °F 56 °F 41 °F (1999)
Cooling Degree Days 2    
Growing Degree Days 16 (Base 50)    
Moisture  
Dew Point 52 °F    
Average Humidity 59    
Maximum Humidity 88    
Minimum Humidity 37    
Precipitation  
Precipitation 0.00 in - - ()
Sea Level Pressure  
Sea Level Pressure 30.09 in    
Wind  
Wind Speed 5 mph (SSE)    
Max Wind Speed 14 mph    
Max Gust Speed 21 mph    
Visibility 10 miles    
Events      
Averages and records for this station are not official NWS values.
T = Trace of Precipitation, MM = Missing Value Source: NWS Daily Summary

Daily Weather History Graph

Daily Weather History Graph

Search for Another Location

Airport or City:

Trip Planner

Search our weather history database for the weather conditions in past years. The results will help you decide how hot, cold, wet, or windy it might be!

Date:

Astronomy

Oct. 21, 2011 Rise Set
Actual Time 7:42 AM CDT 6:59 PM CDT
Civil Twilight 7:17 AM CDT 7:23 PM CDT
Nautical Twilight 6:49 AM CDT 7:51 PM CDT
Astronomical Twilight 6:22 AM CDT 8:19 PM CDT
Moon 1:59 AM CDT (10/21) 3:21 PM CDT (10/21)
Length of Visible Light 12h 05m
Length of Day
11h 17m
Waning Crescent, 33% of the Moon is Illuminated
Oct 21
Waning Crescent
Oct 26
New
Nov 2
First Quarter
Nov 10
Full
Nov 18
Last Quarter

Hourly Weather History & Observations

Time (CDT) Temp. Heat Index Dew Point Humidity Pressure Visibility Wind Dir Wind Speed Gust Speed Precip Events Conditions
12:15 AM 60.8 °F - 44.6 °F 55% 30.07 in 10.0 mi Calm Calm - N/A   Clear
12:35 AM 60.8 °F - 44.6 °F 55% 30.07 in 10.0 mi Calm Calm - N/A   Clear
12:55 AM 60.8 °F - 46.4 °F 59% 30.07 in 10.0 mi South 6.9 mph - N/A   Clear
1:15 AM 60.8 °F - 46.4 °F 59% 30.08 in 10.0 mi SSE 4.6 mph - N/A   Clear
1:35 AM 60.8 °F - 48.2 °F 63% 30.07 in 10.0 mi SSE 5.8 mph - N/A   Clear
1:55 AM 59.0 °F - 46.4 °F 63% 30.07 in 10.0 mi SSE 5.8 mph - N/A   Clear
2:15 AM 59.0 °F - 48.2 °F 67% 30.08 in 10.0 mi SSE 3.5 mph - N/A   Clear
2:35 AM 59.0 °F - 48.2 °F 67% 30.07 in 10.0 mi SSE 5.8 mph - N/A   Clear
2:55 AM 59.0 °F - 48.2 °F 67% 30.07 in 10.0 mi SE 5.8 mph - N/A   Clear
3:15 AM 59.0 °F - 48.2 °F 67% 30.07 in 10.0 mi SSE 4.6 mph - N/A   Clear
3:35 AM 59.0 °F - 50.0 °F 72% 30.07 in 10.0 mi SE 3.5 mph - N/A   Clear
3:55 AM 55.4 °F - 50.0 °F 82% 30.07 in 10.0 mi ESE 3.5 mph - N/A   Clear
4:15 AM 59.0 °F - 50.0 °F 72% 30.08 in 10.0 mi SE 3.5 mph - N/A   Clear
4:35 AM 57.2 °F - 50.0 °F 77% 30.08 in 10.0 mi Calm Calm - N/A   Clear
4:55 AM 55.4 °F - 50.0 °F 82% 30.08 in 10.0 mi SE 3.5 mph - N/A   Clear
5:15 AM 59.0 °F - 50.0 °F 72% 30.08 in 10.0 mi ESE 3.5 mph - N/A   Clear
5:55 AM 59.0 °F - 51.8 °F 77% 30.08 in 10.0 mi Calm Calm - N/A   Clear
6:15 AM 59.0 °F - 51.8 °F 77% 30.09 in 10.0 mi SE 4.6 mph - N/A   Clear
6:35 AM 55.4 °F - 51.8 °F 88% 30.09 in 10.0 mi ESE 3.5 mph - N/A   Clear
6:55 AM 55.4 °F - 50.0 °F 82% 30.10 in 10.0 mi East 3.5 mph - N/A   Clear
7:15 AM 53.6 °F - 48.2 °F 82% 30.10 in 10.0 mi Calm Calm - N/A   Clear
7:35 AM 55.4 °F - 51.8 °F 88% 30.11 in 10.0 mi Calm Calm - N/A   Clear
7:55 AM 53.6 °F - 50.0 °F 88% 30.12 in 10.0 mi Calm Calm - N/A   Clear
8:15 AM 55.4 °F - 51.8 °F 88% 30.12 in 10.0 mi Calm Calm - N/A   Clear
8:35 AM 53.6 °F - 50.0 °F 88% 30.13 in 10.0 mi Calm Calm - N/A   Clear
8:55 AM 57.2 °F - 53.6 °F 88% 30.14 in 10.0 mi SE 4.6 mph - N/A   Clear
9:15 AM 62.6 °F - 53.6 °F 72% 30.14 in 10.0 mi SE 6.9 mph - N/A   Clear
9:35 AM 62.6 °F - 53.6 °F 72% 30.15 in 10.0 mi SSE 8.1 mph - N/A   Clear
10:15 AM 68.0 °F - 55.4 °F 64% 30.16 in 10.0 mi South 10.4 mph - N/A   Clear
10:35 AM 69.8 °F - 57.2 °F 64% 30.16 in 10.0 mi SSE 11.5 mph - N/A   Clear
10:55 AM 71.6 °F - 57.2 °F 60% 30.16 in 10.0 mi SSE 8.1 mph - N/A   Scattered Clouds
11:15 AM 71.6 °F - 55.4 °F 57% 30.16 in 10.0 mi SSE 10.4 mph - N/A   Clear
11:35 AM 71.6 °F - 55.4 °F 57% 30.16 in 10.0 mi South 11.5 mph - N/A   Clear
11:55 AM 73.4 °F - 55.4 °F 53% 30.15 in 10.0 mi South 10.4 mph - N/A   Clear
12:15 PM 77.0 °F - 53.6 °F 44% 30.15 in 10.0 mi South 11.5 mph - N/A   Clear
12:35 PM 77.0 °F - 53.6 °F 44% 30.14 in 10.0 mi South 11.5 mph 20.7 mph N/A   Clear
12:55 PM 77.0 °F - 53.6 °F 44% 30.13 in 10.0 mi South 11.5 mph - N/A   Clear
1:15 PM 78.8 °F - 53.6 °F 42% 30.13 in 10.0 mi South 11.5 mph - N/A   Clear
1:35 PM 78.8 °F - 53.6 °F 42% 30.12 in 10.0 mi SE 10.4 mph 17.3 mph N/A   Clear
1:55 PM 78.8 °F - 53.6 °F 42% 30.11 in 10.0 mi SSE 13.8 mph 18.4 mph N/A   Clear
2:15 PM 80.6 °F 80.3 °F 53.6 °F 39% 30.10 in 10.0 mi SE 10.4 mph - N/A   Clear
2:35 PM 80.6 °F - 51.8 °F 37% 30.09 in 10.0 mi SE 11.5 mph 17.3 mph N/A   Clear
2:55 PM 80.6 °F - 51.8 °F 37% 30.08 in 10.0 mi SE 11.5 mph 17.3 mph N/A   Clear
3:15 PM 80.6 °F - 51.8 °F 37% 30.08 in 10.0 mi SSE 11.5 mph 17.3 mph N/A   Clear
3:35 PM 80.6 °F - 51.8 °F 37% 30.08 in 10.0 mi SSE 11.5 mph 17.3 mph N/A   Clear
3:55 PM 80.6 °F - 51.8 °F 37% 30.08 in 10.0 mi SSE 9.2 mph 17.3 mph N/A   Clear
4:15 PM 80.6 °F - 51.8 °F 37% 30.07 in 10.0 mi SSE 8.1 mph - N/A   Clear
4:35 PM 80.6 °F - 51.8 °F 37% 30.07 in 10.0 mi SSE 10.4 mph 16.1 mph N/A   Clear
4:55 PM 80.6 °F - 51.8 °F 37% 30.06 in 10.0 mi SSE 12.7 mph 16.1 mph N/A   Clear
5:15 PM 80.6 °F - 51.8 °F 37% 30.06 in 10.0 mi SSE 12.7 mph - N/A   Clear
5:35 PM 80.6 °F 80.3 °F 53.6 °F 39% 30.06 in 10.0 mi SSE 12.7 mph - N/A   Clear
5:55 PM 80.6 °F 80.3 °F 53.6 °F 39% 30.06 in 10.0 mi SSE 11.5 mph - N/A   Clear
6:15 PM 78.8 °F - 53.6 °F 42% 30.06 in 10.0 mi SE 10.4 mph - N/A   Clear
6:35 PM 78.8 °F - 53.6 °F 42% 30.06 in 10.0 mi SSE 9.2 mph - N/A   Clear
6:55 PM 77.0 °F - 55.4 °F 47% 30.07 in 10.0 mi SE 10.4 mph - N/A   Clear
7:15 PM 77.0 °F - 55.4 °F 47% 30.07 in 10.0 mi SE 6.9 mph - N/A   Clear
7:35 PM 73.4 °F - 53.6 °F 50% 30.07 in 10.0 mi SE 5.8 mph - N/A   Clear
7:55 PM 73.4 °F - 55.4 °F 53% 30.07 in 10.0 mi Calm Calm - N/A   Clear
8:15 PM 71.6 °F - 53.6 °F 53% 30.07 in 10.0 mi Calm Calm - N/A   Clear
8:35 PM 71.6 °F - 55.4 °F 57% 30.08 in 10.0 mi Calm Calm - N/A   Clear
8:55 PM 71.6 °F - 55.4 °F 57% 30.08 in 10.0 mi Calm Calm - N/A   Clear
9:15 PM 69.8 °F - 57.2 °F 64% 30.08 in 10.0 mi ESE 4.6 mph - N/A   Clear
9:35 PM 64.4 °F - 53.6 °F 68% 30.08 in 10.0 mi Calm Calm - N/A   Clear
10:15 PM 68.0 °F - 57.2 °F 68% 30.09 in 10.0 mi Calm Calm - N/A   Clear
10:35 PM 71.6 °F - 59.0 °F 64% 30.10 in 10.0 mi SSE 9.2 mph - N/A   Clear
10:55 PM 69.8 °F - 60.8 °F 73% 30.10 in 10.0 mi SSE 9.2 mph - N/A   Clear
11:15 PM 68.0 °F - 59.0 °F 73% 30.11 in 10.0 mi SSE 9.2 mph - N/A   Clear
11:35 PM 68.0 °F - 59.0 °F 73% 30.11 in 10.0 mi SSE 10.4 mph - N/A   Clear
11:55 PM 68.0 °F - 60.8 °F 78% 30.11 in 10.0 mi SSE 10.4 mph - N/A   Clear